| time (UTC) | temp F | wind direction | speed MPH | gust MPH | rain 1hr in | rain 24hr in | rain mn in | humidity % | barometer mb |
| 20260906223128 | 62 | 186 | 0.0 | 2.0 | 0.00 | 0.20 | 0.20 | 83 | 1016.5 |
| 20260906222132 | 62 | 216 | 0.0 | 1.0 | 0.00 | 0.20 | 0.20 | 82 | 1016.6 |
| 20260906221129 | 61 | 347 | 0.0 | 1.0 | 0.00 | 0.20 | 0.20 | 82 | 1016.4 |
| 20260906220129 | 61 | 307 | 0.0 | 0.0 | 0.00 | 0.20 | 0.20 | 83 | 1016.4 |
| 20260906215127 | 61 | 308 | 0.0 | 2.0 | 0.00 | 0.20 | 0.20 | 83 | 1016.4 |
| 20260906214124 | 61 | 306 | 0.0 | 0.0 | 0.00 | 0.20 | 0.20 | 83 | 1016.4 |
| 20260906213607 | 62 | 308 | 0.0 | 0.0 | 0.00 | 0.20 | 0.20 | 82 | 1016.3 |
| 20260906212126 | 63 | 28 | 0.0 | 0.0 | 0.00 | 0.20 | 0.20 | 82 | 1016.2 |
| 20260906211124 | 63 | 140 | 0.0 | 0.0 | 0.00 | 0.20 | 0.20 | 82 | 1016.2 |
| 20260906210126 | 62 | 165 | 0.0 | 0.0 | 0.00 | 0.20 | 0.20 | 81 | 1016.1 |
| 20260906205124 | 62 | 293 | 0.0 | 0.0 | 0.00 | 0.20 | 0.20 | 82 | 1016.2 |
| 20260906204122 | 62 | 219 | 0.0 | 0.0 | 0.00 | 0.20 | 0.20 | 87 | 1016.1 |
| 20260906203122 | 60 | 218 | 0.0 | 1.0 | 0.00 | 0.20 | 0.20 | 86 | 1016.2 |
| 20260906202123 | 60 | 149 | 0.0 | 0.0 | 0.00 | 0.20 | 0.20 | 88 | 1016.1 |
| 20260906201121 | 60 | 296 | 0.0 | 0.0 | 0.00 | 0.20 | 0.20 | 91 | 1016.1 |
| 20260906200122 | 59 | 296 | 0.0 | 0.0 | 0.01 | 0.20 | 0.20 | 90 | 1016.1 |
| 20260906195116 | 59 | 302 | 0.0 | 0.0 | 0.01 | 0.20 | 0.20 | 88 | 1016.1 |
| 20260906194118 | 59 | 302 | 0.0 | 0.0 | 0.01 | 0.20 | 0.20 | 88 | 1016.1 |
| 20260906193116 | 59 | 302 | 0.0 | 0.0 | 0.01 | 0.20 | 0.20 | 88 | 1016.1 |
| 20260906192115 | 59 | 302 | 0.0 | 0.0 | 0.01 | 0.20 | 0.20 | 88 | 1016.1 |
| 20260906191116 | 60 | 302 | 0.0 | 0.0 | 0.01 | 0.20 | 0.20 | 86 | 1016.2 |
| 20260906190113 | 59 | 302 | 0.0 | 0.0 | 0.00 | 0.19 | 0.19 | 86 | 1016.2 |
| 20260906185112 | 59 | 302 | 0.0 | 0.0 | 0.00 | 0.19 | 0.19 | 86 | 1016.2 |
| 20260906185043 | 59 | 161 | 0.0 | 0.0 | 0.00 | 0.19 | 0.19 | 86 | 1016.2 |
| 20260906183105 | 59 | 161 | 0.0 | 0.0 | 0.01 | 0.19 | 0.19 | 86 | 1016.2 |
| 20260906182107 | 59 | 161 | 0.0 | 0.0 | 0.01 | 0.19 | 0.19 | 86 | 1016.2 |
| 20260906181106 | 59 | 185 | 0.0 | 0.0 | 0.01 | 0.19 | 0.19 | 85 | 1016.2 |
| 20260906180106 | 58 | 185 | 0.0 | 0.0 | 0.01 | 0.19 | 0.19 | 86 | 1016.1 |
| 20260906175554 | 58 | 297 | 0.0 | 0.0 | 0.01 | 0.19 | 0.19 | 90 | 1016.0 |
| 20260906174105 | 57 | 311 | 0.0 | 0.0 | 0.02 | 0.19 | 0.19 | 91 | 1015.9 |
| 20260906173541 | 57 | 315 | 0.0 | 0.0 | 0.02 | 0.18 | 0.18 | 91 | 1015.9 |
| 20260906172107 | 57 | 279 | 0.0 | 0.0 | 0.03 | 0.18 | 0.18 | 92 | 1015.8 |
| 20260906171108 | 56 | 279 | 0.0 | 0.0 | 0.04 | 0.18 | 0.18 | 93 | 1015.8 |
| 20260906170106 | 56 | 207 | 0.0 | 0.0 | 0.04 | 0.18 | 0.18 | 93 | 1015.8 |
| 20260906165102 | 56 | 207 | 0.0 | 0.0 | 0.05 | 0.18 | 0.17 | 93 | 1015.7 |
| 20260906164101 | 56 | 203 | 0.0 | 0.0 | 0.06 | 0.17 | 0.17 | 93 | 1015.6 |
| 20260906163103 | 56 | 202 | 0.0 | 1.0 | 0.07 | 0.16 | 0.16 | 94 | 1015.4 |
| 20260906162101 | 56 | 232 | 0.0 | 0.0 | 0.07 | 0.15 | 0.15 | 93 | 1015.4 |
| 20260906161101 | 56 | 172 | 0.0 | 0.0 | 0.07 | 0.14 | 0.14 | 94 | 1015.3 |
| 20260906160104 | 56 | 135 | 0.0 | 0.0 | 0.08 | 0.14 | 0.14 | 93 | 1015.3 |
| 20260906155104 | 56 | 323 | 0.0 | 0.0 | 0.08 | 0.13 | 0.13 | 93 | 1015.3 |
| 20260906154100 | 56 | 323 | 0.0 | 0.0 | 0.07 | 0.11 | 0.11 | 93 | 1015.4 |
| 20260906153103 | 55 | 323 | 0.0 | 0.0 | 0.06 | 0.09 | 0.09 | 93 | 1015.4 |
| 20260906152540 | 55 | 323 | 0.0 | 0.0 | 0.06 | 0.08 | 0.08 | 93 | 1015.4 |
| 20260906151553 | 55 | 323 | 0.0 | 0.0 | 0.06 | 0.07 | 0.07 | 92 | 1015.6 |
| 20260906150100 | 55 | 202 | 0.0 | 2.0 | 0.05 | 0.06 | 0.06 | 92 | 1015.5 |
| 20260906145101 | 55 | 227 | 0.0 | 4.0 | 0.04 | 0.05 | 0.05 | 92 | 1015.4 |
| 20260906144100 | 55 | 350 | 0.0 | 5.0 | 0.03 | 0.04 | 0.03 | 91 | 1015.1 |
| 20260906143543 | 55 | 174 | 0.0 | 1.0 | 0.02 | 0.03 | 0.03 | 91 | 1015.1 |
| 20260906142102 | 55 | 238 | 0.0 | 0.0 | 0.01 | 0.02 | 0.02 | 90 | 1015.2 |
| 20260906141054 | 56 | 266 | 0.0 | 3.0 | 0.00 | 0.01 | 0.01 | 90 | 1015.0 |
| 20260906140054 | 56 | 281 | 0.0 | 0.0 | 0.00 | 0.01 | 0.01 | 92 | 1014.9 |
| 20260906135054 | 56 | 219 | 0.0 | 0.0 | 0.00 | 0.01 | 0.01 | 92 | 1014.7 |
| 20260906134054 | 56 | 219 | 0.0 | 0.0 | 0.00 | 0.01 | 0.01 | 92 | 1014.4 |
| 20260906133541 | 56 | 219 | 0.0 | 0.0 | 0.00 | 0.01 | 0.01 | 92 | 1014.1 |
| 20260906132053 | 56 | 219 | 0.0 | 0.0 | 0.00 | 0.01 | 0.01 | 92 | 1014.0 |
| 20260906132018 | 56 | 207 | 0.0 | 0.0 | 0.00 | 0.01 | 0.01 | 93 | 1013.9 |
| 20260906130053 | 56 | 189 | 0.0 | 0.0 | 0.00 | 0.01 | 0.01 | 94 | 1013.8 |
| 20260906125054 | 56 | 189 | 0.0 | 0.0 | 0.00 | 0.01 | 0.01 | 94 | 1013.9 |
| 20260906124046 | 56 | 189 | 0.0 | 0.0 | 0.00 | 0.01 | 0.01 | 94 | 1014.0 |
| 20260906123046 | 56 | 189 | 0.0 | 0.0 | 0.00 | 0.01 | 0.01 | 93 | 1013.9 |
| 20260906122046 | 56 | 189 | 0.0 | 0.0 | 0.00 | 0.01 | 0.01 | 93 | 1013.8 |
| 20260906121047 | 56 | 189 | 0.0 | 0.0 | 0.00 | 0.01 | 0.01 | 93 | 1013.7 |
| 20260906120046 | 57 | 189 | 0.0 | 0.0 | 0.01 | 0.01 | 0.01 | 93 | 1013.6 |
| 20260906115049 | 57 | 189 | 0.0 | 0.0 | 0.01 | 0.01 | 0.01 | 92 | 1013.7 |
| 20260906114046 | 57 | 189 | 0.0 | 0.0 | 0.01 | 0.01 | 0.01 | 92 | 1013.7 |
| 20260906113046 | 57 | 189 | 0.0 | 0.0 | 0.01 | 0.01 | 0.01 | 92 | 1013.7 |
| 20260906112046 | 57 | 189 | 0.0 | 0.0 | 0.01 | 0.01 | 0.01 | 92 | 1013.7 |
| 20260906111054 | 58 | 189 | 0.0 | 0.0 | 0.01 | 0.01 | 0.01 | 92 | 1013.8 |
| 20260906110044 | 58 | 344 | 0.0 | 0.0 | 0.00 | 0.00 | 0.00 | 91 | 1013.8 |
| 20260906105047 | 58 | 344 | 0.0 | 0.0 | 0.00 | 0.00 | 0.00 | 91 | 1013.7 |
| 20260906104045 | 57 | 344 | 0.0 | 0.0 | 0.00 | 0.00 | 0.00 | 91 | 1013.8 |
| 20260906103045 | 57 | 344 | 0.0 | 0.0 | 0.00 | 0.01 | 0.00 | 90 | 1013.9 |
| 20260906102044 | 57 | 344 | 0.0 | 0.0 | 0.00 | 0.01 | 0.00 | 90 | 1013.8 |
| 20260906101044 | 57 | 344 | 0.0 | 0.0 | 0.00 | 0.01 | 0.00 | 90 | 1013.9 |
| 20260906100534 | 58 | 344 | 0.0 | 0.0 | 0.00 | 0.01 | 0.00 | 89 | 1013.7 |
| 20260906095044 | 58 | 344 | 0.0 | 0.0 | 0.00 | 0.01 | 0.00 | 89 | 1013.8 |
| 20260906094045 | 58 | 344 | 0.0 | 0.0 | 0.00 | 0.01 | 0.00 | 89 | 1013.7 |
| 20260906093047 | 58 | 344 | 0.0 | 0.0 | 0.00 | 0.01 | 0.00 | 89 | 1013.7 |
| 20260906092042 | 58 | 344 | 0.0 | 0.0 | 0.00 | 0.01 | 0.00 | 88 | 1013.7 |
| 20260906091042 | 58 | 344 | 0.0 | 0.0 | 0.00 | 0.01 | 0.00 | 87 | 1013.7 |
| 20260906090044 | 58 | 344 | 0.0 | 0.0 | 0.00 | 0.01 | 0.00 | 87 | 1013.7 |
| 20260906085042 | 58 | 344 | 0.0 | 0.0 | 0.00 | 0.01 | 0.00 | 87 | 1013.9 |
| 20260906084042 | 59 | 344 | 0.0 | 0.0 | 0.00 | 0.01 | 0.00 | 87 | 1013.9 |
| 20260906083042 | 59 | 344 | 0.0 | 0.0 | 0.00 | 0.01 | 0.00 | 87 | 1013.9 |
| 20260906082040 | 59 | 340 | 0.0 | 0.0 | 0.00 | 0.01 | 0.00 | 87 | 1013.8 |
| 20260906081532 | 59 | 340 | 0.0 | 0.0 | 0.00 | 0.01 | 0.00 | 87 | 1013.7 |
| 20260906080515 | 59 | 333 | 0.0 | 0.0 | 0.00 | 0.01 | 0.00 | 87 | 1013.8 |
| 20260906075925 | 59 | 334 | 0.0 | 0.0 | 0.00 | 0.01 | 0.00 | 86 | 1013.8 |
| 20260906075231 | 59 | 334 | 0.0 | 0.0 | 0.00 | 0.01 | 0.00 | 87 | 1013.8 |
| 20260906073042 | 60 | 348 | 0.0 | 0.0 | 0.00 | 0.01 | 0.00 | 86 | 1013.9 |
| 20260906072528 | 60 | 323 | 0.0 | 0.0 | 0.00 | 0.01 | 0.00 | 86 | 1014.0 |
| 20260906071226 | 60 | 301 | 0.0 | 0.0 | 0.00 | 0.01 | 0.00 | 85 | 1013.7 |
| 20260906070931 | 60 | 315 | 0.0 | 0.0 | 0.00 | 0.01 | 0.00 | 85 | 1013.6 |
| 20260906065038 | 60 | 311 | 0.0 | 0.0 | 0.00 | 0.01 | 0.01 | 84 | 1013.5 |
| 20260906064038 | 60 | 320 | 0.0 | 0.0 | 0.00 | 0.01 | 0.01 | 84 | 1013.6 |
| 20260906063041 | 60 | 290 | 0.0 | 1.0 | 0.00 | 0.01 | 0.01 | 84 | 1013.6 |
| 20260906062039 | 60 | 294 | 0.0 | 0.0 | 0.00 | 0.01 | 0.01 | 83 | 1013.7 |
| 20260906061527 | 60 | 327 | 0.0 | 0.0 | 0.00 | 0.01 | 0.01 | 83 | 1013.8 |
| 20260906060044 | 61 | 340 | 0.0 | 1.0 | 0.00 | 0.01 | 0.01 | 83 | 1013.7 |
| 20260906055041 | 61 | 314 | 0.0 | 0.0 | 0.00 | 0.01 | 0.01 | 82 | 1013.7 |
| 20260906054038 | 61 | 252 | 0.0 | 0.0 | 0.00 | 0.01 | 0.01 | 82 | 1013.7 |
| 20260906053039 | 61 | 334 | 0.0 | 0.0 | 0.00 | 0.01 | 0.01 | 81 | 1013.8 |
| 20260906052533 | 61 | 300 | 0.0 | 1.0 | 0.00 | 0.01 | 0.01 | 81 | 1013.9 |
| 20260906051031 | 62 | 338 | 0.0 | 4.0 | 0.00 | 0.01 | 0.01 | 80 | 1013.8 |
| 20260906050528 | 62 | 304 | 0.0 | 3.0 | 0.00 | 0.01 | 0.01 | 80 | 1013.9 |
| 20260906045032 | 62 | 292 | 0.0 | 1.0 | 0.00 | 0.01 | 0.01 | 79 | 1013.8 |
| 20260906044032 | 62 | 337 | 0.0 | 0.0 | 0.00 | 0.01 | 0.01 | 79 | 1013.8 |
| 20260906043032 | 62 | 320 | 0.0 | 4.0 | 0.00 | 0.01 | 0.01 | 78 | 1013.9 |
| 20260906042032 | 63 | 284 | 0.0 | 1.0 | 0.00 | 0.01 | 0.01 | 77 | 1013.9 |
| 20260906041030 | 63 | 348 | 0.0 | 2.0 | 0.00 | 0.01 | 0.01 | 77 | 1013.9 |
| 20260906040029 | 63 | 313 | 0.0 | 1.0 | 0.00 | 0.01 | 0.01 | 76 | 1013.9 |
| 20260906035030 | 64 | 297 | 0.0 | 1.0 | 0.00 | 0.01 | 0.01 | 74 | 1013.8 |
| 20260906034029 | 64 | 331 | 0.0 | 1.0 | 0.00 | 0.01 | 0.01 | 73 | 1013.7 |
| 20260906033026 | 64 | 302 | 0.0 | 1.0 | 0.00 | 0.01 | 0.01 | 73 | 1013.7 |
| 20260906032028 | 65 | 326 | 0.0 | 1.0 | 0.00 | 0.02 | 0.01 | 72 | 1013.6 |
| 20260906031025 | 65 | 300 | 0.0 | 8.0 | 0.00 | 0.03 | 0.01 | 71 | 1013.4 |
| 20260906030023 | 65 | 322 | 0.0 | 10.0 | 0.00 | 0.05 | 0.01 | 71 | 1013.4 |
| 20260906025023 | 66 | 281 | 1.0 | 8.0 | 0.00 | 0.05 | 0.01 | 70 | 1013.3 |
| 20260906024024 | 66 | 309 | 0.0 | 3.0 | 0.00 | 0.05 | 0.01 | 68 | 1013.3 |
| 20260906023024 | 66 | 335 | 0.0 | 3.0 | 0.00 | 0.05 | 0.01 | 67 | 1013.4 |
| 20260906022509 | 67 | 340 | 1.0 | 8.0 | 0.00 | 0.06 | 0.01 | 66 | 1013.4 |
| 20260906021025 | 67 | 301 | 0.0 | 2.0 | 0.00 | 0.06 | 0.01 | 66 | 1013.4 |
| 20260906020026 | 67 | 300 | 1.0 | 6.0 | 0.00 | 0.06 | 0.01 | 63 | 1013.4 |
| 20260906015020 | 68 | 308 | 0.0 | 7.0 | 0.00 | 0.06 | 0.01 | 57 | 1013.4 |
| 20260906014020 | 68 | 296 | 0.0 | 4.0 | 0.00 | 0.06 | 0.01 | 56 | 1013.4 |
| 20260906013511 | 69 | 314 | 0.0 | 3.0 | 0.00 | 0.06 | 0.01 | 55 | 1013.4 |
| 20260906012018 | 69 | 342 | 0.0 | 6.0 | 0.00 | 0.06 | 0.01 | 53 | 1013.3 |
| 20260906011016 | 69 | 284 | 0.0 | 2.0 | 0.00 | 0.06 | 0.01 | 53 | 1013.1 |
| 20260906010013 | 70 | 310 | 0.0 | 4.0 | 0.00 | 0.06 | 0.01 | 51 | 1013.1 |
| 20260906005015 | 71 | 348 | 0.0 | 1.0 | 0.00 | 0.07 | 0.01 | 49 | 1013.1 |
| 20260906004018 | 70 | 30 | 0.0 | 1.0 | 0.00 | 0.08 | 0.01 | 48 | 1013.3 |
| 20260906003015 | 71 | 324 | 0.0 | 1.0 | 0.00 | 0.08 | 0.01 | 49 | 1013.3 |
| 20260906002012 | 71 | 121 | 0.0 | 4.0 | 0.00 | 0.09 | 0.01 | 49 | 1013.3 |
| 20260906001012 | 71 | 302 | 0.0 | 3.0 | 0.00 | 0.11 | 0.01 | 49 | 1013.3 |
| 20260906000456 | 71 | 324 | 0.0 | 3.0 | 0.00 | 0.13 | 0.01 | 48 | 1013.1 |
| 20260905235007 | 72 | 348 | 0.0 | 2.0 | 0.00 | 0.14 | 0.01 | 47 | 1013.2 |
| 20260905234005 | 72 | 312 | 0.0 | 4.0 | 0.00 | 0.14 | 0.01 | 49 | 1013.1 |
| 20260905233005 | 72 | 340 | 0.0 | 4.0 | 0.00 | 0.15 | 0.01 | 49 | 1013.3 |
| 20260905232005 | 72 | 300 | 0.0 | 3.0 | 0.00 | 0.15 | 0.01 | 50 | 1013.3 |
| 20260905231004 | 72 | 338 | 0.0 | 3.0 | 0.00 | 0.16 | 0.01 | 51 | 1013.5 |
| 20260905230003 | 71 | 288 | 0.0 | 1.0 | 0.00 | 0.19 | 0.01 | 50 | 1013.6 |
| 20260905225004 | 71 | 313 | 0.0 | 1.0 | 0.00 | 0.21 | 0.01 | 52 | 1013.7 |